ORBCOMM FM105 [-]

Last updated on July 6, 2021, 3:36 p.m. UTC

1 41181U 15081C   21186.83096891 -.00000096  00000-0  18009-4 0  9990
2 41181  47.0032  20.5674 0002012 335.6104  24.4680 14.43452271292284
UTC
Height (km)
Latitude
Longitude
Inclination
Orbital Period
UTC large
Height (km)
Speed (km/s)
/
Latitude / Longitude
Inclination (degrees)
Orbital Period (minutes)
Azimuth
Elevation
Range (km)
Doppler Factor
iOS Compass Heading
iOS Angle